| time (UTC) | temp F | wind direction | speed MPH | gust MPH | rain 1hr in | rain 24hr in | rain mn in | humidity % | barometer mb |
| 20260831180523 | 88 | 138 | 8.0 | 11.0 | 0.00 | 0.00 | 0.00 | 72 | 1019.2 |
| 20260831175518 | 86 | 155 | 7.0 | 10.0 | 0.00 | 0.00 | 0.00 | 75 | 1019.5 |
| 20260831174534 | 87 | 160 | 7.0 | 11.0 | 0.00 | 0.00 | 0.00 | 74 | 1019.4 |
| 20260831173529 | 87 | 129 | 6.0 | 11.0 | 0.00 | 0.00 | 0.00 | 74 | 1019.4 |
| 20260831172524 | 87 | 128 | 4.0 | 7.0 | 0.00 | 0.00 | 0.00 | 74 | 1019.5 |
| 20260831171519 | 86 | 127 | 4.0 | 6.0 | 0.00 | 0.00 | 0.00 | 74 | 1019.7 |
| 20260831170534 | 88 | 150 | 3.0 | 6.0 | 0.00 | 0.00 | 0.00 | 71 | 1019.5 |
| 20260831165530 | 88 | 111 | 4.0 | 6.0 | 0.00 | 0.00 | 0.00 | 71 | 1019.5 |
| 20260831164525 | 87 | 126 | 4.0 | 6.0 | 0.00 | 0.00 | 0.00 | 72 | 1019.6 |
| 20260831163520 | 88 | 140 | 4.0 | 9.0 | 0.00 | 0.00 | 0.00 | 69 | 1019.6 |
| 20260831162535 | 90 | 107 | 5.0 | 9.0 | 0.00 | 0.00 | 0.00 | 65 | 1019.8 |
| 20260831161530 | 90 | 107 | 3.0 | 6.0 | 0.00 | 0.00 | 0.00 | 63 | 1019.9 |
| 20260831160526 | 88 | 116 | 4.0 | 8.0 | 0.00 | 0.00 | 0.00 | 66 | 1019.8 |
| 20260831155521 | 88 | 146 | 7.0 | 9.0 | 0.00 | 0.00 | 0.00 | 67 | 1019.9 |
| 20260831154516 | 87 | 93 | 4.0 | 5.0 | 0.00 | 0.00 | 0.00 | 70 | 1019.9 |
| 20260831153531 | 87 | 132 | 7.0 | 10.0 | 0.00 | 0.00 | 0.00 | 69 | 1019.8 |
| 20260831152527 | 86 | 140 | 7.0 | 9.0 | 0.00 | 0.00 | 0.00 | 71 | 1019.8 |
| 20260831151522 | 87 | 136 | 8.0 | 10.0 | 0.00 | 0.00 | 0.00 | 71 | 1019.7 |
| 20260831150517 | 85 | 168 | 4.0 | 6.0 | 0.00 | 0.00 | 0.00 | 74 | 1019.6 |
| 20260831145532 | 85 | 177 | 3.0 | 4.0 | 0.00 | 0.00 | 0.00 | 76 | 1019.5 |
| 20260831144527 | 85 | 141 | 6.0 | 8.0 | 0.00 | 0.00 | 0.00 | 76 | 1019.5 |
| 20260831143522 | 84 | 135 | 7.0 | 9.0 | 0.00 | 0.00 | 0.00 | 77 | 1019.5 |
| 20260831142517 | 83 | 134 | 8.0 | 10.0 | 0.00 | 0.00 | 0.00 | 80 | 1019.5 |
| 20260831141533 | 82 | 135 | 8.0 | 10.0 | 0.00 | 0.00 | 0.00 | 82 | 1019.5 |
| 20260831140528 | 82 | 129 | 7.0 | 9.0 | 0.00 | 0.00 | 0.00 | 83 | 1019.5 |
| 20260831135523 | 81 | 124 | 7.0 | 9.0 | 0.00 | 0.00 | 0.00 | 83 | 1019.5 |
| 20260831134518 | 81 | 133 | 8.0 | 10.0 | 0.00 | 0.00 | 0.00 | 85 | 1019.4 |
| 20260831133533 | 80 | 136 | 8.0 | 10.0 | 0.00 | 0.00 | 0.00 | 88 | 1019.2 |
| 20260831132529 | 79 | 128 | 8.0 | 10.0 | 0.00 | 0.00 | 0.00 | 90 | 1019.3 |
| 20260831131524 | 78 | 128 | 7.0 | 11.0 | 0.00 | 0.00 | 0.00 | 93 | 1019.3 |
| 20260831130519 | 77 | 132 | 8.0 | 10.0 | 0.00 | 0.00 | 0.00 | 97 | 1019.4 |
| 20260831125534 | 76 | 128 | 8.0 | 10.0 | 0.00 | 0.00 | 0.00 | 97 | 1019.4 |
| 20260831124534 | 75 | 130 | 8.0 | 10.0 | 0.00 | 0.00 | 0.00 | 97 | 1019.4 |
| 20260831123525 | 75 | 128 | 8.0 | 10.0 | 0.00 | 0.00 | 0.00 | 97 | 1019.4 |
| 20260831122520 | 75 | 130 | 8.0 | 10.0 | 0.00 | 0.00 | 0.00 | 97 | 1019.3 |
| 20260831121535 | 74 | 131 | 9.0 | 11.0 | 0.00 | 0.00 | 0.00 | 97 | 1019.3 |
| 20260831120531 | 74 | 133 | 8.0 | 10.0 | 0.00 | 0.00 | 0.00 | 97 | 1019.1 |
| 20260831115525 | 74 | 130 | 9.0 | 10.0 | 0.00 | 0.00 | 0.00 | 97 | 1019.1 |
| 20260831114520 | 74 | 132 | 9.0 | 11.0 | 0.00 | 0.00 | 0.00 | 97 | 1019.1 |
| 20260831113536 | 74 | 132 | 9.0 | 10.0 | 0.00 | 0.01 | 0.00 | 97 | 1018.9 |
| 20260831112531 | 74 | 133 | 8.0 | 10.0 | 0.00 | 0.02 | 0.00 | 97 | 1018.9 |
| 20260831111526 | 74 | 130 | 8.0 | 11.0 | 0.00 | 0.02 | 0.00 | 97 | 1018.9 |
| 20260831110521 | 74 | 129 | 8.0 | 10.0 | 0.00 | 0.02 | 0.00 | 97 | 1018.8 |
| 20260831105516 | 74 | 135 | 8.0 | 10.0 | 0.00 | 0.02 | 0.00 | 97 | 1018.8 |
| 20260831104532 | 74 | 138 | 9.0 | 10.0 | 0.00 | 0.02 | 0.00 | 97 | 1018.8 |
| 20260831103527 | 74 | 127 | 7.0 | 9.0 | 0.00 | 0.02 | 0.00 | 97 | 1018.9 |
| 20260831102522 | 74 | 133 | 8.0 | 10.0 | 0.00 | 0.02 | 0.00 | 97 | 1018.9 |
| 20260831101518 | 74 | 116 | 6.0 | 8.0 | 0.00 | 0.02 | 0.00 | 97 | 1018.7 |
| 20260831100532 | 74 | 135 | 8.0 | 9.0 | 0.00 | 0.02 | 0.00 | 97 | 1018.5 |
| 20260831095527 | 75 | 134 | 8.0 | 10.0 | 0.00 | 0.02 | 0.00 | 97 | 1018.4 |
| 20260831094522 | 74 | 139 | 9.0 | 11.0 | 0.00 | 0.02 | 0.00 | 97 | 1018.2 |
| 20260831093517 | 75 | 129 | 7.0 | 10.0 | 0.00 | 0.02 | 0.00 | 97 | 1018.1 |
| 20260831092532 | 75 | 137 | 8.0 | 10.0 | 0.00 | 0.02 | 0.00 | 97 | 1018.2 |
| 20260831091527 | 74 | 136 | 9.0 | 11.0 | 0.00 | 0.02 | 0.00 | 97 | 1018.1 |
| 20260831090522 | 74 | 137 | 8.0 | 10.0 | 0.00 | 0.02 | 0.00 | 97 | 1018.0 |
| 20260831085517 | 74 | 144 | 9.0 | 11.0 | 0.00 | 0.02 | 0.00 | 97 | 1018.0 |
| 20260831084532 | 74 | 132 | 8.0 | 9.0 | 0.00 | 0.02 | 0.00 | 97 | 1017.9 |
| 20260831083528 | 74 | 126 | 7.0 | 9.0 | 0.00 | 0.02 | 0.00 | 97 | 1018.0 |
| 20260831082523 | 74 | 136 | 9.0 | 11.0 | 0.00 | 0.02 | 0.00 | 97 | 1017.9 |
| 20260831081518 | 74 | 135 | 9.0 | 10.0 | 0.00 | 0.02 | 0.00 | 97 | 1018.1 |
| 20260831080534 | 74 | 130 | 9.0 | 10.0 | 0.00 | 0.02 | 0.00 | 97 | 1018.1 |
| 20260831075529 | 75 | 133 | 9.0 | 10.0 | 0.00 | 0.02 | 0.00 | 97 | 1018.2 |
| 20260831074524 | 75 | 131 | 9.0 | 10.0 | 0.00 | 0.02 | 0.00 | 97 | 1018.3 |
| 20260831073519 | 75 | 132 | 9.0 | 10.0 | 0.00 | 0.02 | 0.00 | 97 | 1018.4 |
| 20260831072534 | 75 | 129 | 9.0 | 10.0 | 0.00 | 0.02 | 0.00 | 97 | 1018.5 |
| 20260831071530 | 75 | 130 | 9.0 | 9.0 | 0.00 | 0.02 | 0.00 | 97 | 1018.4 |
| 20260831070525 | 75 | 126 | 8.0 | 9.0 | 0.00 | 0.02 | 0.00 | 97 | 1018.5 |
| 20260831065520 | 75 | 128 | 9.0 | 10.0 | 0.00 | 0.02 | 0.00 | 97 | 1018.6 |
| 20260831064535 | 75 | 127 | 9.0 | 10.0 | 0.00 | 0.02 | 0.00 | 97 | 1018.6 |
| 20260831063530 | 75 | 131 | 9.0 | 10.0 | 0.00 | 0.02 | 0.00 | 97 | 1018.8 |
| 20260831062525 | 75 | 130 | 8.0 | 9.0 | 0.00 | 0.02 | 0.00 | 97 | 1019.0 |
| 20260831061520 | 75 | 127 | 9.0 | 9.0 | 0.00 | 0.02 | 0.00 | 97 | 1019.0 |
| 20260831060535 | 76 | 129 | 9.0 | 9.0 | 0.00 | 0.02 | 0.00 | 97 | 1019.1 |
| 20260831055530 | 76 | 130 | 8.0 | 9.0 | 0.00 | 0.02 | 0.00 | 97 | 1019.2 |
| 20260831054526 | 76 | 130 | 9.0 | 10.0 | 0.00 | 0.02 | 0.00 | 97 | 1019.2 |
| 20260831053521 | 76 | 131 | 9.0 | 10.0 | 0.00 | 0.02 | 0.00 | 97 | 1019.4 |
| 20260831052516 | 76 | 131 | 9.0 | 9.0 | 0.00 | 0.02 | 0.00 | 97 | 1019.4 |
| 20260831051532 | 76 | 132 | 8.0 | 9.0 | 0.00 | 0.02 | 0.00 | 97 | 1019.5 |
| 20260831050526 | 76 | 129 | 8.0 | 9.0 | 0.00 | 0.02 | 0.00 | 97 | 1019.5 |
| 20260831045522 | 76 | 130 | 9.0 | 9.0 | 0.00 | 0.02 | 0.00 | 97 | 1019.5 |
| 20260831044517 | 76 | 130 | 8.0 | 9.0 | 0.00 | 0.02 | 0.00 | 97 | 1019.5 |
| 20260831043532 | 76 | 128 | 8.0 | 9.0 | 0.00 | 0.02 | 0.00 | 97 | 1019.6 |
| 20260831042527 | 76 | 130 | 9.0 | 9.0 | 0.00 | 0.02 | 0.00 | 97 | 1019.4 |
| 20260831041522 | 77 | 132 | 9.0 | 9.0 | 0.00 | 0.02 | 0.00 | 97 | 1019.3 |
| 20260831040518 | 77 | 130 | 9.0 | 9.0 | 0.00 | 0.02 | 0.00 | 97 | 1019.5 |
| 20260831035533 | 77 | 127 | 8.0 | 9.0 | 0.00 | 0.02 | 0.02 | 97 | 1019.6 |
| 20260831034528 | 77 | 128 | 8.0 | 9.0 | 0.00 | 0.02 | 0.02 | 97 | 1019.6 |
| 20260831033523 | 77 | 129 | 9.0 | 9.0 | 0.00 | 0.02 | 0.02 | 97 | 1019.7 |
| 20260831032518 | 77 | 133 | 9.0 | 10.0 | 0.00 | 0.02 | 0.02 | 97 | 1019.7 |
| 20260831031534 | 77 | 133 | 9.0 | 9.0 | 0.00 | 0.02 | 0.02 | 97 | 1019.9 |
| 20260831030529 | 77 | 132 | 8.0 | 9.0 | 0.00 | 0.02 | 0.02 | 96 | 1019.8 |
| 20260831025524 | 77 | 132 | 9.0 | 10.0 | 0.00 | 0.02 | 0.02 | 96 | 1019.7 |
| 20260831024520 | 77 | 130 | 9.0 | 10.0 | 0.00 | 0.02 | 0.02 | 96 | 1019.6 |
| 20260831023535 | 77 | 134 | 9.0 | 9.0 | 0.00 | 0.02 | 0.02 | 96 | 1019.6 |
| 20260831022530 | 77 | 135 | 9.0 | 10.0 | 0.00 | 0.02 | 0.02 | 95 | 1019.5 |
| 20260831021525 | 77 | 132 | 9.0 | 11.0 | 0.00 | 0.02 | 0.02 | 95 | 1019.5 |
| 20260831020520 | 77 | 137 | 9.0 | 10.0 | 0.00 | 0.02 | 0.02 | 95 | 1019.6 |
| 20260831015536 | 78 | 135 | 9.0 | 9.0 | 0.00 | 0.02 | 0.02 | 95 | 1019.4 |
| 20260831014531 | 78 | 139 | 10.0 | 11.0 | 0.00 | 0.02 | 0.02 | 94 | 1019.4 |
| 20260831013526 | 78 | 139 | 10.0 | 10.0 | 0.00 | 0.02 | 0.02 | 94 | 1019.4 |
| 20260831012521 | 78 | 137 | 9.0 | 10.0 | 0.00 | 0.02 | 0.02 | 94 | 1019.6 |
| 20260831011516 | 78 | 138 | 9.0 | 10.0 | 0.00 | 0.02 | 0.02 | 94 | 1019.5 |
| 20260831010532 | 78 | 141 | 9.0 | 11.0 | 0.00 | 0.02 | 0.02 | 93 | 1019.2 |
| 20260831005527 | 78 | 136 | 9.0 | 10.0 | 0.00 | 0.02 | 0.02 | 93 | 1019.2 |
| 20260831004522 | 78 | 137 | 9.0 | 10.0 | 0.00 | 0.02 | 0.02 | 93 | 1019.0 |
| 20260831003517 | 79 | 141 | 9.0 | 10.0 | 0.00 | 0.02 | 0.02 | 92 | 1019.1 |
| 20260831002532 | 79 | 140 | 9.0 | 10.0 | 0.00 | 0.02 | 0.02 | 92 | 1018.9 |
| 20260831001528 | 79 | 134 | 9.0 | 9.0 | 0.00 | 0.02 | 0.02 | 91 | 1018.9 |
| 20260831000523 | 80 | 137 | 9.0 | 10.0 | 0.00 | 0.02 | 0.02 | 91 | 1018.8 |
| 20260830235518 | 80 | 141 | 10.0 | 11.0 | 0.00 | 0.02 | 0.02 | 90 | 1018.8 |
| 20260830234533 | 80 | 144 | 10.0 | 11.0 | 0.00 | 0.02 | 0.02 | 90 | 1018.9 |
| 20260830233528 | 80 | 139 | 10.0 | 11.0 | 0.00 | 0.02 | 0.02 | 90 | 1018.9 |
| 20260830232523 | 81 | 132 | 9.0 | 10.0 | 0.00 | 0.02 | 0.02 | 90 | 1019.0 |
| 20260830231518 | 81 | 138 | 9.0 | 11.0 | 0.00 | 0.02 | 0.02 | 89 | 1019.0 |
| 20260830230534 | 81 | 139 | 10.0 | 11.0 | 0.00 | 0.02 | 0.02 | 87 | 1019.1 |
| 20260830225528 | 82 | 141 | 9.0 | 11.0 | 0.00 | 0.02 | 0.02 | 85 | 1019.0 |
| 20260830224523 | 82 | 141 | 10.0 | 11.0 | 0.00 | 0.02 | 0.02 | 84 | 1019.1 |
| 20260830223518 | 82 | 142 | 10.0 | 12.0 | 0.00 | 0.02 | 0.02 | 84 | 1019.1 |
| 20260830222533 | 82 | 140 | 9.0 | 11.0 | 0.00 | 0.02 | 0.02 | 83 | 1019.0 |
| 20260830221528 | 82 | 135 | 9.0 | 10.0 | 0.00 | 0.02 | 0.02 | 83 | 1019.1 |
| 20260830220523 | 82 | 138 | 10.0 | 11.0 | 0.00 | 0.02 | 0.02 | 82 | 1019.3 |
| 20260830215518 | 82 | 136 | 9.0 | 11.0 | 0.00 | 0.02 | 0.02 | 83 | 1019.4 |
| 20260830214534 | 82 | 139 | 9.0 | 11.0 | 0.00 | 0.02 | 0.02 | 82 | 1019.5 |
| 20260830213529 | 82 | 130 | 8.0 | 10.0 | 0.00 | 0.02 | 0.02 | 81 | 1019.4 |
| 20260830212524 | 83 | 136 | 8.0 | 10.0 | 0.00 | 0.02 | 0.02 | 82 | 1019.5 |
| 20260830211519 | 83 | 132 | 9.0 | 10.0 | 0.00 | 0.02 | 0.02 | 82 | 1019.4 |
| 20260830210534 | 83 | 186 | 5.0 | 7.0 | 0.00 | 0.02 | 0.02 | 83 | 1019.6 |
| 20260830205530 | 83 | 182 | 5.0 | 6.0 | 0.00 | 0.02 | 0.02 | 83 | 1019.5 |
| 20260830204525 | 83 | 187 | 5.0 | 7.0 | 0.00 | 0.02 | 0.02 | 82 | 1019.6 |
| 20260830203520 | 83 | 182 | 5.0 | 6.0 | 0.00 | 0.02 | 0.02 | 83 | 1019.5 |
| 20260830202536 | 82 | 182 | 4.0 | 6.0 | 0.00 | 0.02 | 0.02 | 84 | 1019.5 |
| 20260830201531 | 82 | 180 | 4.0 | 5.0 | 0.00 | 0.02 | 0.02 | 84 | 1019.4 |
| 20260830200526 | 82 | 182 | 3.0 | 4.0 | 0.00 | 0.02 | 0.02 | 84 | 1019.5 |
| 20260830195521 | 82 | 181 | 3.0 | 5.0 | 0.00 | 0.02 | 0.02 | 83 | 1019.7 |
| 20260830194536 | 82 | 178 | 4.0 | 5.0 | 0.00 | 0.02 | 0.02 | 84 | 1019.9 |
| 20260830193531 | 82 | 174 | 4.0 | 6.0 | 0.00 | 0.02 | 0.02 | 83 | 1020.2 |
| 20260830192527 | 82 | 68 | 0.0 | 2.0 | 0.00 | 0.02 | 0.02 | 83 | 1020.2 |
| 20260830191522 | 82 | 91 | 1.0 | 2.0 | 0.00 | 0.02 | 0.02 | 81 | 1020.3 |
| 20260830190517 | 83 | 14 | 1.0 | 2.0 | 0.00 | 0.02 | 0.02 | 78 | 1020.3 |
| 20260830185532 | 85 | 337 | 1.0 | 3.0 | 0.00 | 0.02 | 0.02 | 78 | 1020.1 |
| 20260830184528 | 84 | 188 | 0.0 | 2.0 | 0.00 | 0.02 | 0.02 | 79 | 1020.0 |
| 20260830183523 | 84 | 232 | 1.0 | 3.0 | 0.00 | 0.02 | 0.02 | 80 | 1020.1 |
| 20260830182518 | 84 | 233 | 1.0 | 6.0 | 0.00 | 0.02 | 0.02 | 79 | 1020.1 |
| 20260830181533 | 84 | 220 | 2.0 | 4.0 | 0.00 | 0.02 | 0.02 | 78 | 1020.1 |